SCP
0 -0 -0 -0 0 0 0 0 0 0 0 0 -0 -0 -0 -0 -0 0 0 0 0 0 0 0 0 0 0 0 0 0 0 0 0
0 0 0 0 0 0 0 0 0 0 0 0 0 -0 -0 -0 -0 -0 -0 0 0 0 0 0 0 0 0 0 0 0 0 0 -0
0 0 0 0 0 -0 -0 0 0 0 0 0 0 -0 -0 -0 -0 0 0 0 0 0 0 0 0 0 0 0 0 0 0 0 0
0 -0 -0 -0 -0 0 0 0 0 0 1 0 0 0 0 0 0 0 0 0 0 0 0 0 0 0 0 0 0 0 0 -0 0
-0 -0 -0 -0 0 0 0 0 0 0 0 0 0 0 0 0 0 0 0 0 0 0 0 0 0 0 0 0 0 0 0 0 0
0 -0 -0 0 0 0 0 0 0 0 -0 0 0 0 0 0 0 0 0 0 0 0 -0 0 0 0 0 0 0 0 0 0 0
0 0 0 0 0 0 0 0 0 0 0 0 0 1 0 -0 -0 0 0 0 0 0 -0 -0 0 0 0 0 0 0 0 0 0
1 1 1 0 0 0 0 0 0 0 0 -0 0 0 0 0 0 0 0 0 0 0 0 0 0 0 0 0 0 0 0 0 0
0 0 0 0 0 0 0 0 0 0 0 0 -0 0 0 0 -0 -0 0 0 0 0 0 0 0 0 0 0 0 0 0 0 0
0 0 0 0 0 0 0 0 0 0 0 0 -0 -0 -0 0 -0 0 0 0 0 0 0 0 0 0 0 -0 -0 0 0 0 0
0 0 0 0 0 0 0 0 0 0 0 0 0 0 0 -0 -0 0 0 1 0 1 0 0 0 0 0 0 0 0 0 0 0
0 0 0 0 0 0 0 0 0 0 0 -0 0 0 0 0 0 0 1 1 0 0 1 0 0 1 0 0 0 0 0 0 0
0 0 0 0 0 0 0 0 0 0 0 0 0 -0 -0 0 0 0 0 0 0 1 1 1 0 0 0 0 0 0 0 0 0
0 0 0 0 0 0 0 0 0 0 0 0 0 0 -0 -0 0 -0 0 0 0 1 1 1 1 1 0 0 0 0 0 0 0
0 0 0 0 0 0 0 0 0 0 0 0 0 0 0 0 0 0 0 0 1 0 0 1 1 1 1 1 1 0 0 0 0
0 0 0 0 0 0 0 0 0 0 0 0 0 0 0 1 1 0 0 0 0 0 0 1 1 1 1 1 1 1 0 0 0
0 0 0 0 0 0 0 0 0 0 0 0 0 0 0 0 0 0 0 0 0 0 0 1 1 2 1 1 0 1 1 0 0
0 0 0 0 0 0 0 0 0 0 0 0 0 0 0 0 0 0 0 0 0 0 0 1 1 1 1 1 -0 0 0 0 0
0 0 0 0 0 0 0 0 0 0 0 0 0 0 0 0 0 0 0 0 0 0 0 0 0 0 0 0 0 0 -0 -0 -0
0 0 0 0 0 0 0 0 0 0 0 0 0 0 0 0 0 0 0 0 0 0 0 0 0 0 0 0 0 0 0 0 -0
Wind_Speed_500mb
28 28 26 25 26 31 11 40 47 52 36 34 63 60 60 54 48 47 44 41 40 41 41 43 45 51 53 47 34 33 34 37 30
37 35 29 28 33 43 18 33 44 50 57 57 31 65 60 56 50 49 47 43 42 44 40 36 27 31 44 40 44 36 40 35 36
36 47 43 22 38 34 21 29 34 32 39 50 51 54 54 52 47 47 48 41 38 40 32 27 21 27 36 40 41 42 40 35 29
38 55 45 61 32 8 10 13 2 12 20 31 41 48 52 56 48 46 47 30 34 30 27 30 28 30 34 42 39 40 41 35 29
28 47 53 47 34 10 13 21 17 13 13 23 26 32 42 53 55 53 38 35 31 21 23 23 33 36 40 43 42 42 41 37 33
10 29 43 43 32 12 14 24 21 16 30 33 37 27 23 34 46 50 48 38 32 30 33 16 30 39 43 47 45 45 42 37 35
3 6 19 36 21 7 15 17 18 25 31 18 30 29 24 29 39 51 54 44 33 41 34 43 30 42 43 48 50 46 44 43 41
9 12 14 10 6 7 12 17 19 30 35 34 21 24 20 22 49 47 50 49 42 41 39 38 48 42 51 46 52 48 45 47 47
13 12 9 7 9 15 20 23 24 26 29 33 30 7 26 44 49 45 42 46 51 43 45 42 44 52 50 44 54 51 51 47 49
21 17 12 12 15 21 26 28 27 26 28 27 23 19 21 27 35 51 52 47 46 49 49 47 46 52 58 69 57 50 52 51 46
7 11 13 15 18 22 26 31 34 34 34 32 30 27 24 29 31 33 43 52 51 49 49 52 52 51 55 61 61 49 53 54 55
13 22 27 30 33 33 34 41 45 49 49 49 45 37 32 31 34 35 38 41 53 58 54 53 55 54 54 60 67 59 54 52 50
37 29 29 31 36 39 42 42 50 54 58 63 62 60 48 36 35 37 41 45 49 51 56 62 58 59 61 56 57 64 62 56 55
62 63 57 52 53 53 53 52 55 59 58 61 59 62 66 51 40 38 43 45 47 44 52 58 65 65 65 62 58 54 60 60 61
71 72 69 67 70 70 69 65 64 69 68 62 55 52 53 55 43 33 37 42 44 42 43 48 56 61 64 63 63 60 56 60 64
76 78 76 69 67 67 66 66 65 71 71 63 56 56 54 48 47 40 36 39 38 39 37 39 47 55 70 62 59 65 63 59 60
80 79 78 75 78 77 71 65 65 64 63 57 55 57 56 51 47 48 42 40 37 36 34 38 39 51 46 25 40 52 62 65 63
83 81 77 74 72 67 62 57 57 59 60 61 64 61 57 51 44 48 48 45 40 39 37 36 42 53 56 59 60 32 41 57 64
77 74 69 67 67 66 64 61 61 63 61 59 62 68 64 55 49 46 49 46 43 46 38 32 41 45 44 53 65 72 64 24 45
73 72 72 71 64 63 60 61 65 64 61 61 62 63 63 58 52 47 47 46 43 48 41 36 30 42 54 48 73 64 79 83 56
Wind_Direction_500mb
112 133 160 165 184 192 202 246 237 239 207 261 230 234 244 248 250 252 252 254 254 258 258 267 262 242 239 232 247 231 226 227 226
110 122 128 138 150 173 226 224 224 231 227 254 258 241 239 247 252 256 257 258 262 263 269 275 257 224 226 227 236 218 225 226 223
131 136 137 166 163 189 216 220 230 238 244 256 240 248 237 245 258 261 263 257 262 267 277 261 226 220 217 223 213 217 224 223 221
159 165 165 171 182 167 244 326 275 236 261 274 269 262 252 254 255 268 272 272 264 270 273 245 223 225 222 211 213 219 222 223 224
192 181 184 194 199 202 258 321 308 304 279 255 259 268 268 266 264 261 273 274 267 263 254 241 234 229 219 214 217 218 221 222 226
239 221 208 206 204 247 302 326 337 314 301 252 260 281 303 291 287 269 268 275 274 261 235 275 237 230 227 220 212 220 228 226 222
291 265 242 232 236 291 3 13 16 11 350 268 256 247 299 283 276 281 266 270 269 264 253 240 246 233 228 227 224 229 234 232 229
97 63 65 98 120 29 28 41 39 33 20 12 257 257 257 286 280 275 273 263 265 262 257 246 239 240 231 230 228 228 236 232 230
74 43 36 27 2 1 2 1 9 21 30 24 30 251 256 271 276 269 272 264 266 265 262 254 241 238 235 226 226 246 237 234 232
61 45 25 356 356 354 2 359 357 357 6 11 8 6 352 316 297 274 263 257 255 259 259 257 252 243 236 228 234 240 231 233 236
22 348 343 337 325 325 333 330 329 329 334 339 340 338 334 332 330 298 279 263 256 256 257 255 255 252 243 235 231 233 227 235 238
272 276 281 283 293 293 293 303 305 307 310 313 317 324 322 329 322 322 312 288 266 255 254 256 249 253 247 238 235 232 229 233 235
298 287 280 286 291 292 293 292 292 295 295 297 302 308 313 310 314 314 309 311 296 270 254 251 258 252 251 245 240 237 234 235 242
297 297 292 287 285 283 282 283 287 287 290 291 293 290 293 298 291 299 306 304 309 294 261 249 244 248 250 248 245 238 231 231 236
297 295 290 286 281 278 276 276 278 278 280 283 282 280 283 285 281 283 292 299 299 302 288 262 255 256 253 251 248 243 238 235 235
300 295 290 287 282 282 279 272 266 272 276 282 286 280 278 278 271 274 282 291 293 295 292 269 253 268 263 257 253 248 241 238 239
301 298 293 294 287 286 284 279 262 266 275 280 280 276 273 271 268 263 270 280 285 287 283 266 237 231 244 253 277 266 260 246 240
296 297 294 294 287 280 282 281 273 266 270 275 275 271 271 270 267 263 264 273 282 280 281 267 241 238 255 236 281 273 285 269 254
295 294 297 296 289 283 281 279 282 275 273 275 277 266 266 268 267 263 262 268 279 281 282 271 249 249 246 233 228 244 277 318 294
294 290 288 288 291 289 284 280 280 277 275 277 273 267 263 261 264 262 263 265 272 277 279 278 261 240 230 253 239 249 231 292 258
Wind_Speed_850mb
28 28 26 25 26 31 11 40 47 52 36 34 63 60 60 54 48 47 44 41 40 41 41 43 45 51 53 47 34 33 34 37 30
37 35 29 28 33 43 18 33 44 50 57 57 31 65 60 56 50 49 47 43 42 44 40 36 27 31 44 40 44 36 40 35 36
36 47 43 22 38 34 21 29 34 32 39 50 51 54 54 52 47 47 48 41 38 40 32 27 21 27 36 40 41 42 40 35 29
38 55 45 61 32 8 10 13 2 12 20 31 41 48 52 56 48 46 47 30 34 30 27 30 28 30 34 42 39 40 41 35 29
28 47 53 47 34 10 13 21 17 13 13 23 26 32 42 53 55 53 38 35 31 21 23 23 33 36 40 43 42 42 41 37 33
10 29 43 43 32 12 14 24 21 16 30 33 37 27 23 34 46 50 48 38 32 30 33 16 30 39 43 47 45 45 42 37 35
3 6 19 36 21 7 15 17 18 25 31 18 30 29 24 29 39 51 54 44 33 41 34 43 30 42 43 48 50 46 44 43 41
9 12 14 10 6 7 12 17 19 30 35 34 21 24 20 22 49 47 50 49 42 41 39 38 48 42 51 46 52 48 45 47 47
13 12 9 7 9 15 20 23 24 26 29 33 30 7 26 44 49 45 42 46 51 43 45 42 44 52 50 44 54 51 51 47 49
21 17 12 12 15 21 26 28 27 26 28 27 23 19 21 27 35 51 52 47 46 49 49 47 46 52 58 69 57 50 52 51 46
7 11 13 15 18 22 26 31 34 34 34 32 30 27 24 29 31 33 43 52 51 49 49 52 52 51 55 61 61 49 53 54 55
13 22 27 30 33 33 34 41 45 49 49 49 45 37 32 31 34 35 38 41 53 58 54 53 55 54 54 60 67 59 54 52 50
37 29 29 31 36 39 42 42 50 54 58 63 62 60 48 36 35 37 41 45 49 51 56 62 58 59 61 56 57 64 62 56 55
62 63 57 52 53 53 53 52 55 59 58 61 59 62 66 51 40 38 43 45 47 44 52 58 65 65 65 62 58 54 60 60 61
71 72 69 67 70 70 69 65 64 69 68 62 55 52 53 55 43 33 37 42 44 42 43 48 56 61 64 63 63 60 56 60 64
76 78 76 69 67 67 66 66 65 71 71 63 56 56 54 48 47 40 36 39 38 39 37 39 47 55 70 62 59 65 63 59 60
80 79 78 75 78 77 71 65 65 64 63 57 55 57 56 51 47 48 42 40 37 36 34 38 39 51 46 25 40 52 62 65 63
83 81 77 74 72 67 62 57 57 59 60 61 64 61 57 51 44 48 48 45 40 39 37 36 42 53 56 59 60 32 41 57 64
77 74 69 67 67 66 64 61 61 63 61 59 62 68 64 55 49 46 49 46 43 46 38 32 41 45 44 53 65 72 64 24 45
73 72 72 71 64 63 60 61 65 64 61 61 62 63 63 58 52 47 47 46 43 48 41 36 30 42 54 48 73 64 79 83 56
Wind_Direction_850mb
112 133 160 165 184 192 202 246 237 239 207 261 230 234 244 248 250 252 252 254 254 258 258 267 262 242 239 232 247 231 226 227 226
110 122 128 138 150 173 226 224 224 231 227 254 258 241 239 247 252 256 257 258 262 263 269 275 257 224 226 227 236 218 225 226 223
131 136 137 166 163 189 216 220 230 238 244 256 240 248 237 245 258 261 263 257 262 267 277 261 226 220 217 223 213 217 224 223 221
159 165 165 171 182 167 244 326 275 236 261 274 269 262 252 254 255 268 272 272 264 270 273 245 223 225 222 211 213 219 222 223 224
192 181 184 194 199 202 258 321 308 304 279 255 259 268 268 266 264 261 273 274 267 263 254 241 234 229 219 214 217 218 221 222 226
239 221 208 206 204 247 302 326 337 314 301 252 260 281 303 291 287 269 268 275 274 261 235 275 237 230 227 220 212 220 228 226 222
291 265 242 232 236 291 3 13 16 11 350 268 256 247 299 283 276 281 266 270 269 264 253 240 246 233 228 227 224 229 234 232 229
97 63 65 98 120 29 28 41 39 33 20 12 257 257 257 286 280 275 273 263 265 262 257 246 239 240 231 230 228 228 236 232 230
74 43 36 27 2 1 2 1 9 21 30 24 30 251 256 271 276 269 272 264 266 265 262 254 241 238 235 226 226 246 237 234 232
61 45 25 356 356 354 2 359 357 357 6 11 8 6 352 316 297 274 263 257 255 259 259 257 252 243 236 228 234 240 231 233 236
22 348 343 337 325 325 333 330 329 329 334 339 340 338 334 332 330 298 279 263 256 256 257 255 255 252 243 235 231 233 227 235 238
272 276 281 283 293 293 293 303 305 307 310 313 317 324 322 329 322 322 312 288 266 255 254 256 249 253 247 238 235 232 229 233 235
298 287 280 286 291 292 293 292 292 295 295 297 302 308 313 310 314 314 309 311 296 270 254 251 258 252 251 245 240 237 234 235 242
297 297 292 287 285 283 282 283 287 287 290 291 293 290 293 298 291 299 306 304 309 294 261 249 244 248 250 248 245 238 231 231 236
297 295 290 286 281 278 276 276 278 278 280 283 282 280 283 285 281 283 292 299 299 302 288 262 255 256 253 251 248 243 238 235 235
300 295 290 287 282 282 279 272 266 272 276 282 286 280 278 278 271 274 282 291 293 295 292 269 253 268 263 257 253 248 241 238 239
301 298 293 294 287 286 284 279 262 266 275 280 280 276 273 271 268 263 270 280 285 287 283 266 237 231 244 253 277 266 260 246 240
296 297 294 294 287 280 282 281 273 266 270 275 275 271 271 270 267 263 264 273 282 280 281 267 241 238 255 236 281 273 285 269 254
295 294 297 296 289 283 281 279 282 275 273 275 277 266 266 268 267 263 262 268 279 281 282 271 249 249 246 233 228 244 277 318 294
294 290 288 288 291 289 284 280 280 277 275 277 273 267 263 261 264 262 263 265 272 277 279 278 261 240 230 253 239 249 231 292 258